Content
SEND FEEDBACK

Daily
Averages
Monthly
Summary
United States of America

NEW YORK - CENTRAL PARK, NEW YORK


Home > North America > United States > New York
Elevation: 14 feet     Latitude: 40 47N     Longitude: 073 58W

WEATHER
 
SELECT A DAY
Number of Records: 147,926;   Date Range: 11/1/95 - 7/7/14
 
SHARE

PRINT THIS DATA

[ ← Previous Day ]
WEATHER ALMANAC - FEBRUARY 1, 2013
[ Next Day → ]
[ °C ]   °F
Weather ElementAverageHighLow
Temperature27.9 °F30 °F (11:51 am)24.1 °F (10:51 pm)
Dewpoint9.3 °F12.9 °F (9:51 pm)3.9 °F (11:51 am)
Humidity46.1 %60 % (9:51 pm)33 % (11:51 am)
Barometer29.95 in30.23 in (11:51 pm)29.80 in (3:51 am)
Wind Speed8.5 mph15 mph (1:51 pm)
Wind Gust32.2 mph (1:51 pm)
Weather ElementAverage
Visibility10 mi
Wind DirectionS (176.1 °)

Weather ElementTotal
Precipitation---
Heating Degree Days38 (Base 65)
Averaged from 23 records on February 1, 2013
WEATHER CONDITIONS BREAKOUT
WIND DIRECTION BREAKOUT
WEATHER BY HOUR - FEBRUARY 1, 2013
[ °C ]   °F
Local TimeTemperatureDewpointHumidityBarometerVisibilityWind DirectionWind SpeedGust SpeedPrecipitationEventsConditions
1:51 AM28.9 °F10.9 °F47 %29.81 in10.0 miVariable5.8 mph19.6 mphClear
2:51 AM28.9 °F10.9 °F47 %29.81 in10.0 miCalmPartly Cloudy
3:51 AM28.0 °F10.9 °F49 %29.80 in10.0 miVariable5.8 mph17.3 mphClear
4:51 AM28.9 °F10.0 °F45 %29.81 in10.0 miWSW (250°)8.1 mph29.9 mphClear
5:51 AM28.0 °F12.0 °F51 %29.82 in10.0 miNorthMostly Cloudy
6:51 AM28.9 °F10.9 °F47 %29.84 in10.0 miWest (280°)8.1 mph19.6 mphScattered Clouds
7:51 AM28.9 °F10.9 °F47 %29.85 in10.0 miWNW (300°)9.2 mph20.7 mphMostly Cloudy
8:51 AM28.9 °F10.9 °F47 %29.86 in10.0 miWest (280°)10.4 mph16.1 mphOvercast
9:51 AM28.9 °F8.1 °F41 %29.87 in10.0 miWNW (290°)6.9 mphOvercast
10:51 AM28.9 °F7.0 °F40 %29.88 in10.0 miNW (310°)10.4 mph20.7 mphOvercast
11:51 AM30.0 °F3.9 °F33 %29.86 in10.0 miWNW (300°)11.5 mph24.2 mphMostly Cloudy
12:51 PM30.0 °F3.9 °F33 %29.87 in10.0 miNorthMostly Cloudy
1:51 PM30.0 °F5.0 °F35 %29.90 in10.0 miWNW (290°)15.0 mph32.2 mphMostly Cloudy
2:51 PM28.9 °F7.0 °F40 %29.93 in10.0 miNW (310°)9.2 mph23.0 mphMostly Cloudy
3:51 PM28.9 °F5.0 °F36 %29.96 in10.0 miNorthPartly Cloudy
4:51 PM28.9 °F8.1 °F41 %30.01 in10.0 miWNW (290°)6.9 mph16.1 mphClear
5:51 PM27.0 °F12.0 °F53 %30.06 in10.0 miWNW (300°)11.5 mph20.7 mphScattered Clouds
6:51 PM26.1 °F12.0 °F55 %30.10 in10.0 miVariable6.9 mphPartly Cloudy
7:51 PM26.1 °F10.9 °F53 %30.14 in10.0 miNorthClear
8:51 PM26.1 °F10.0 °F51 %30.16 in10.0 miVariable4.6 mph17.3 mphMostly Cloudy
9:51 PM25.0 °F12.9 °F60 %30.18 in10.0 miWest (280°)8.1 mphClear
10:51 PM24.1 °F10.9 °F57 %30.21 in10.0 miWNW (290°)13.8 mph21.9 mphClear
11:51 PM24.1 °F9.0 °F53 %30.23 in10.0 miWest (280°)9.2 mph19.6 mphClear
Hourly data recorded from KNYC, located miles away from New York - Central Park, New York







STORIES FROM OUR PARTNERS